Theta_e
289 288 287 286 285 284 283 283 282 281 281 281 280 280 280 280 280 280 280 279 279 279 278 278 278 277 277 277 276 276 276 276 276 276 275 274 275 274 274 274 273 273 274 273 274 274 274 273 273 274 274 274 274 275 275 275 275 275 275 275 274 275 274 273 271 271 273 276 275 275 277 278 278 280 280 281 282 283 285 285 286 287 288 289 292
288 287 286 285 284 283 282 282 281 280 280 279 279 279 279 279 279 279 278 279 278 278 277 277 277 276 276 275 275 275 275 275 275 274 274 274 273 274 273 273 273 272 273 272 273 273 273 273 273 273 274 274 274 274 274 273 274 273 274 274 273 274 274 273 272 271 270 274 275 276 276 277 276 278 278 279 281 283 283 284 286 287 287 288 290
287 286 285 284 283 282 281 280 280 279 279 279 278 278 279 279 279 278 278 277 278 277 276 276 276 275 275 274 274 274 274 274 274 273 273 273 272 272 273 272 272 271 271 272 272 272 272 272 272 273 274 274 275 275 273 273 273 273 273 273 273 273 274 274 272 270 271 271 274 274 274 276 276 276 278 280 282 283 284 284 285 287 289 290 291
286 285 284 283 282 281 280 279 279 278 278 278 278 278 278 278 278 277 277 277 276 276 276 275 275 274 273 273 273 273 273 273 273 273 273 272 272 272 272 272 272 272 271 271 272 272 271 271 271 272 273 273 273 272 272 272 272 272 272 272 272 272 273 273 273 272 272 271 272 273 274 274 276 278 279 280 280 281 282 285 287 288 290 292 293
284 284 283 281 281 280 279 278 277 277 277 278 277 278 277 277 277 276 276 275 275 275 274 274 273 273 272 273 273 273 273 273 272 272 272 272 272 272 272 272 272 271 271 272 272 271 271 271 272 273 273 272 271 271 271 271 272 272 271 272 272 272 273 273 273 273 272 271 272 274 275 276 277 278 279 279 280 282 283 283 284 287 290 292 293
284 282 281 280 279 278 277 277 277 277 277 277 277 277 277 276 276 276 275 274 274 274 273 273 273 272 272 272 272 272 272 272 272 272 272 272 272 272 272 272 272 272 272 272 272 272 272 273 273 272 272 271 270 271 271 271 271 271 271 271 272 272 272 272 273 273 273 272 273 273 274 274 274 275 277 277 277 279 282 283 285 287 288 290 292
282 281 280 279 278 277 277 277 277 277 277 277 277 276 276 276 275 274 274 273 273 272 272 272 272 272 272 272 272 272 272 272 272 272 272 272 272 272 272 272 272 272 272 272 273 273 273 272 272 272 272 271 271 271 271 271 271 271 272 272 272 272 272 272 272 272 272 272 272 273 273 274 275 274 277 279 278 278 277 280 283 287 288 289 290
280 279 279 278 277 277 277 277 277 277 277 276 276 276 275 275 274 274 273 272 272 271 271 271 271 272 271 271 272 272 272 272 272 272 272 272 272 272 272 272 272 272 273 273 273 273 273 273 273 273 272 272 272 272 272 271 272 271 272 272 272 272 271 272 272 272 271 271 271 271 273 273 274 276 278 278 278 278 279 279 279 282 286 289 291
279 278 278 277 277 277 277 277 277 276 276 275 275 274 274 273 273 273 272 271 271 271 271 271 270 270 271 271 271 272 272 272 272 272 271 271 272 272 273 273 273 273 273 273 274 274 274 274 274 274 274 276 276 276 276 276 272 271 272 273 272 272 272 272 271 272 271 271 271 272 272 272 273 274 274 276 277 277 280 282 283 285 288 288 290
278 277 277 277 277 277 276 276 275 275 275 274 274 273 273 272 271 271 270 270 270 270 270 270 270 270 270 271 271 272 271 272 272 274 274 273 273 273 274 273 273 273 273 273 274 274 275 275 275 278 278 278 278 279 279 279 279 277 274 273 273 272 272 271 271 271 271 270 271 271 271 271 272 273 274 275 277 280 280 281 282 285 287 287 289
277 277 277 277 276 276 275 275 275 274 274 273 273 272 271 270 270 269 269 269 269 269 269 269 269 270 271 271 270 271 271 271 273 274 275 276 275 274 273 274 274 274 274 274 274 274 275 275 275 276 277 277 276 278 279 280 280 280 280 279 278 275 273 272 271 272 271 271 272 272 272 272 273 274 274 275 276 278 279 281 283 285 285 285 284
276 276 276 276 275 275 274 274 273 273 272 272 271 270 270 269 268 268 268 268 268 268 268 269 270 270 270 270 270 270 270 272 274 275 276 276 276 275 274 274 274 274 274 274 274 274 274 274 274 275 275 275 275 275 276 278 279 279 280 280 280 281 281 277 274 273 273 272 272 273 273 273 273 275 275 276 276 277 278 280 282 284 285 285 285
276 276 276 275 274 274 274 273 272 271 271 270 269 268 267 267 267 266 266 267 268 268 268 269 269 270 269 269 269 269 270 272 273 274 275 276 277 277 275 275 274 274 274 274 274 274 274 273 274 274 274 277 276 275 274 274 277 278 278 279 279 280 281 281 281 278 277 275 274 274 275 275 275 276 277 277 278 277 278 278 280 283 285 285 286
276 275 274 274 273 273 272 272 271 270 269 268 267 267 266 266 267 267 267 267 267 267 268 268 268 268 269 268 268 269 269 271 273 274 276 276 277 277 275 275 274 274 274 274 274 274 274 273 273 273 274 274 275 275 274 274 274 274 274 274 275 276 279 280 280 280 280 277 276 275 277 278 276 277 278 279 277 277 278 278 280 280 282 284 287
275 274 273 273 272 272 271 270 269 269 267 267 266 266 266 266 266 266 267 267 267 267 267 268 268 268 267 267 267 267 268 271 273 275 275 276 277 277 274 274 273 273 274 274 274 274 274 274 274 273 274 274 275 275 275 275 274 274 274 274 275 275 276 276 276 277 277 277 277 277 277 278 278 278 279 279 278 278 278 279 280 282 283 285 286
274 273 272 272 271 271 270 269 268 267 266 266 265 266 266 266 266 267 267 267 267 267 267 267 267 266 266 266 266 266 268 271 273 274 275 276 277 274 273 273 273 273 273 274 274 274 274 274 274 274 274 274 276 279 278 276 275 274 274 274 274 275 276 278 280 281 279 278 278 278 278 278 280 279 279 278 278 279 280 280 281 282 282 282 281
273 273 272 271 270 270 269 268 267 266 266 265 265 265 265 266 266 266 266 266 266 266 266 266 266 266 266 266 266 266 266 269 272 274 275 276 275 273 273 272 272 272 273 273 274 274 274 275 274 274 274 274 277 279 279 279 275 274 274 274 275 275 275 277 280 281 282 282 282 282 282 283 283 283 283 284 282 281 279 278 278 281 280 280 281
272 272 271 270 269 269 268 267 267 266 265 265 265 265 266 266 265 266 265 265 265 266 266 265 266 266 266 265 266 265 266 269 273 274 275 275 275 273 272 272 272 272 273 273 274 274 275 277 276 274 273 273 277 279 279 278 275 275 274 274 274 274 275 277 278 279 281 282 282 283 283 282 283 284 284 284 284 283 280 277 279 281 280 281 281
272 271 270 269 268 267 267 267 266 266 265 265 265 265 265 265 265 265 265 265 265 265 265 265 265 265 266 266 267 267 267 269 272 273 274 275 274 273 272 272 271 272 272 272 274 274 274 275 276 275 275 275 278 279 279 277 275 274 274 274 273 273 275 277 277 277 278 278 278 279 279 281 280 280 280 283 283 283 281 281 282 281 280 281 283
271 270 269 268 267 266 266 266 265 265 264 264 264 264 265 264 264 264 264 265 264 265 265 264 264 264 265 266 267 268 268 268 270 273 274 275 275 273 272 271 271 271 272 272 272 273 273 272 273 276 277 277 278 278 279 279 276 275 275 274 273 273 276 276 277 278 278 278 278 279 278 279 279 279 280 280 281 281 281 282 283 282 281 281 282
270 269 267 266 265 265 265 265 264 264 264 263 263 263 264 264 264 263 263 264 264 264 263 263 263 264 266 267 267 268 268 269 270 273 274 274 275 275 272 272 272 272 272 272 272 271 271 271 271 274 276 277 278 278 279 279 279 276 276 275 275 277 279 276 277 279 277 278 278 278 278 278 279 279 279 280 281 283 284 285 284 283 283 282 282
268 267 266 265 264 263 263 263 263 262 262 262 262 262 264 264 263 262 263 263 262 261 262 263 264 265 266 267 268 268 270 271 270 272 273 274 275 276 273 273 274 273 272 271 271 270 270 270 270 272 276 277 278 278 279 279 279 276 276 279 280 281 278 279 278 278 278 278 278 278 278 278 278 278 279 280 281 282 284 285 285 285 285 285 284
267 265 264 263 262 262 262 261 261 261 261 262 262 262 262 261 261 262 262 262 262 262 263 264 264 265 266 267 268 268 269 269 271 270 272 274 275 276 276 275 276 274 271 270 270 269 270 270 271 274 276 277 277 278 278 278 277 275 278 279 280 281 281 279 278 278 278 278 277 277 277 277 277 278 280 281 282 282 283 285 285 286 286 286 287
265 263 262 261 261 261 261 261 261 261 261 261 261 262 262 261 261 262 262 263 264 263 264 265 265 265 265 266 267 268 268 269 270 271 271 274 275 276 276 276 276 273 272 270 270 270 269 270 272 276 276 276 276 276 277 276 274 277 278 278 278 280 280 279 278 278 278 278 277 276 276 277 278 278 279 281 282 284 284 285 286 287 286 286 287
263 262 261 260 260 260 260 260 260 260 261 261 260 261 261 261 261 263 262 264 264 263 264 265 264 265 265 265 266 267 268 268 268 270 272 273 275 275 276 276 275 275 271 270 270 270 273 275 275 275 274 275 275 275 273 273 275 276 276 276 276 275 279 279 278 278 277 277 277 277 277 278 279 279 281 281 282 283 284 285 286 287 287 287 287
261 260 260 259 259 259 259 259 260 260 260 261 261 262 261 262 263 263 263 263 263 263 263 264 265 265 265 265 266 266 267 267 268 269 270 272 273 274 274 275 274 274 273 270 273 274 274 273 273 273 272 272 270 269 269 270 274 274 274 274 272 272 274 277 278 278 277 278 278 278 279 279 280 281 282 282 282 282 283 284 285 285 285 285 285
260 259 259 259 259 259 259 259 259 259 260 261 262 262 262 263 263 263 263 263 263 263 264 265 265 265 265 265 265 266 266 267 267 268 270 271 271 271 271 271 272 272 270 269 271 269 269 269 269 272 271 272 272 272 271 271 269 269 269 270 270 271 272 272 274 277 279 279 279 280 280 280 281 281 281 282 282 283 284 284 284 284 285 285 284
259 259 259 259 258 259 260 260 259 259 260 261 261 262 262 263 263 263 264 264 263 264 264 264 265 265 264 265 265 265 265 266 267 268 270 270 270 271 270 270 269 268 268 269 269 268 266 269 268 267 267 267 267 267 267 268 268 268 268 269 269 270 271 273 274 274 277 280 281 281 281 282 281 281 282 282 283 284 285 284 284 284 285 285 283
260 259 259 258 259 260 261 260 261 260 260 261 262 263 262 262 263 264 265 265 265 265 265 265 266 266 265 265 264 264 265 265 267 272 271 273 271 270 269 269 269 268 270 273 268 266 265 265 264 265 264 264 265 265 266 266 266 267 267 268 268 268 269 270 269 271 272 273 276 279 280 280 280 281 282 282 282 283 284 284 285 285 285 285 284
259 259 259 259 259 260 260 260 261 261 260 260 261 261 264 266 265 264 264 267 268 269 269 266 267 267 266 266 267 265 265 267 272 273 273 273 273 273 273 272 272 270 272 272 268 264 263 263 263 263 263 263 263 264 264 265 265 265 266 268 268 267 268 269 269 269 270 271 272 274 278 280 280 280 280 281 282 283 284 284 284 285 284 284 284
259 259 259 259 259 260 260 260 261 261 261 261 261 261 261 264 268 268 267 267 268 268 269 268 269 269 268 266 267 270 270 272 272 272 272 272 273 273 272 271 271 271 272 267 263 262 262 261 262 262 263 263 263 263 264 264 265 265 265 266 267 267 268 268 268 269 269 269 270 273 276 278 280 281 281 281 282 282 284 285 285 285 285 285 284
259 259 260 260 260 260 260 260 260 260 261 262 262 262 262 262 264 268 268 267 268 268 268 268 268 268 269 269 268 267 269 271 272 272 272 272 272 272 271 271 270 271 270 268 261 261 261 261 261 262 262 262 263 263 264 264 265 265 265 265 265 267 267 267 268 268 268 269 269 271 272 274 277 281 282 283 283 283 283 284 285 285 285 285 285
260 260 260 260 260 261 261 261 261 261 261 261 261 262 263 262 262 263 266 267 267 268 267 267 268 268 268 268 269 269 270 271 271 271 271 271 271 271 270 269 269 270 268 262 260 260 261 261 261 261 262 262 262 263 263 264 264 265 265 265 265 266 267 268 269 268 268 269 269 269 270 271 274 278 282 284 283 283 284 284 285 285 285 285 286
261 261 260 260 261 261 261 261 261 261 261 261 262 262 261 262 262 262 261 261 263 266 266 265 266 266 267 267 268 269 269 270 270 270 270 270 270 270 268 265 267 268 266 260 260 259 260 260 261 261 261 262 262 263 263 263 264 265 265 266 266 267 267 268 268 267 268 268 267 268 269 270 272 273 276 281 284 284 284 284 284 284 284 285 285
262 261 260 261 261 261 262 262 261 261 261 260 259 259 258 258 258 259 259 259 259 259 258 259 262 265 264 264 266 268 269 269 270 269 269 269 269 268 265 261 259 260 260 260 260 259 259 260 260 260 261 261 262 263 263 263 264 264 265 265 266 266 266 267 267 268 267 267 267 267 268 268 269 271 274 276 280 283 284 284 284 284 284 285 286
262 261 261 261 262 262 262 261 261 260 260 260 259 258 258 257 257 257 256 256 256 256 256 257 256 260 263 264 265 266 268 269 269 268 268 268 267 265 258 258 258 258 258 259 259 259 260 260 260 260 261 261 262 262 263 263 263 264 265 265 265 266 266 266 267 267 267 266 266 267 267 267 268 269 270 273 276 280 284 285 285 285 286 286 287
261 261 261 262 262 261 261 260 261 261 260 258 258 257 257 257 256 256 256 256 255 255 255 255 255 256 260 259 261 263 266 267 267 267 266 266 265 260 258 257 257 257 257 258 258 258 258 259 260 260 261 261 262 262 263 263 264 264 265 266 266 266 266 267 267 267 266 265 266 266 266 266 267 267 269 270 273 277 282 285 285 285 286 286 287
261 261 262 262 261 260 260 260 260 259 257 257 257 257 256 256 256 256 255 255 255 255 254 254 257 255 255 255 259 259 261 263 263 262 261 261 258 256 256 257 257 256 256 257 257 257 258 259 259 260 261 261 262 262 263 263 263 264 264 265 266 266 269 267 267 266 266 265 265 265 265 266 266 267 268 268 270 274 278 283 285 285 286 287 288
261 262 263 263 262 260 259 258 257 256 256 256 256 255 255 255 255 255 254 254 254 254 254 254 254 254 254 255 256 259 260 256 255 254 255 255 256 256 255 255 256 255 256 256 257 257 257 258 259 260 261 261 262 262 263 263 263 263 264 265 266 266 266 266 266 266 265 265 265 265 265 265 266 266 267 268 269 272 276 280 285 286 286 287 289
261 261 262 262 261 260 258 257 256 256 255 255 255 255 255 255 255 254 254 253 253 253 254 253 253 253 253 253 255 259 256 254 253 253 253 254 254 254 254 254 255 255 255 255 256 256 256 257 258 259 260 261 262 262 263 263 263 263 264 265 266 266 266 266 266 265 265 265 265 265 265 265 265 266 266 267 269 272 275 277 282 287 288 288 289
261 260 261 262 260 259 257 256 256 256 255 255 255 255 255 255 254 254 254 254 254 253 253 253 253 252 253 256 262 261 255 252 252 252 252 253 253 253 254 254 254 254 255 255 255 256 256 257 258 259 260 261 262 262 262 263 263 263 263 265 266 266 266 266 266 265 265 265 265 265 265 265 265 265 266 267 270 271 273 277 281 287 288 289 290
260 260 260 259 258 256 256 256 256 255 255 255 255 255 254 253 253 254 253 253 253 253 253 252 253 252 255 260 261 260 253 251 252 252 252 252 252 253 254 254 254 254 254 254 255 255 256 257 258 259 259 260 261 262 262 262 263 263 264 265 266 266 266 266 266 266 265 265 265 265 265 265 265 266 266 269 268 269 272 276 281 287 289 289 289
260 259 259 257 257 256 256 255 255 254 254 254 254 254 253 253 253 253 253 253 253 252 253 252 252 251 252 257 258 258 252 251 252 251 251 252 252 253 253 253 254 254 254 254 255 256 257 257 257 258 259 260 261 262 262 262 263 263 264 266 267 266 266 266 266 265 265 265 265 265 265 265 265 265 266 267 268 269 271 275 280 286 288 289 289
259 258 257 256 256 256 255 254 254 254 254 254 253 252 252 252 252 252 252 251 251 252 252 252 251 251 250 252 252 251 250 250 250 250 250 251 251 252 253 253 253 253 253 254 255 256 256 257 257 258 259 260 261 262 263 263 264 264 264 266 267 267 267 266 266 265 265 264 264 264 264 265 265 265 266 267 267 269 271 275 280 286 288 288 289
258 257 256 256 255 255 254 254 254 253 252 252 252 251 252 252 252 252 252 251 251 251 251 251 251 250 250 250 250 250 249 249 250 250 250 250 251 251 252 253 253 253 253 254 255 255 256 256 257 257 258 259 261 262 263 264 264 265 266 268 267 267 267 267 267 266 266 265 264 264 264 264 264 264 265 266 267 268 270 274 279 285 287 288 288
257 256 256 255 254 254 254 254 253 252 252 252 252 251 252 252 252 252 252 252 252 251 251 251 250 250 250 250 250 250 249 249 249 250 251 251 251 251 252 252 252 252 253 253 254 255 256 256 257 257 258 259 261 262 264 264 265 267 268 269 269 269 269 268 268 267 266 265 265 264 264 264 264 265 266 266 267 268 270 273 278 284 287 287 288
257 256 255 255 254 253 253 253 253 253 253 253 253 252 252 251 251 251 251 251 251 251 251 250 250 250 250 249 249 249 249 250 249 250 249 249 249 250 251 251 251 252 252 253 254 255 255 256 257 257 258 260 261 263 264 265 265 267 269 269 270 270 269 269 268 267 266 266 265 265 265 264 264 264 265 266 266 267 269 272 278 284 285 286 287
256 255 255 254 254 253 253 253 253 252 253 253 253 252 252 251 251 251 250 249 250 250 250 250 250 250 250 250 250 250 250 250 250 250 250 250 250 251 250 250 251 251 251 252 253 254 255 256 256 258 259 260 261 263 263 264 265 266 269 269 270 270 270 269 268 268 267 266 266 265 265 264 264 264 265 265 265 266 267 270 275 282 285 285 286
256 256 255 254 253 253 253 253 252 253 253 253 252 252 251 251 251 251 251 251 250 250 250 250 250 250 250 250 250 250 250 250 249 249 250 251 250 250 250 250 250 250 251 252 253 254 254 255 256 258 259 260 261 262 263 263 263 266 269 269 270 271 270 269 268 268 267 266 266 265 265 265 264 264 264 264 265 265 266 269 271 276 284 285 285
256 255 254 254 253 253 253 253 254 254 253 253 252 252 252 251 251 251 251 251 251 250 250 250 250 250 250 250 249 249 250 250 250 250 250 250 251 250 250 250 250 250 250 251 252 253 254 255 256 257 259 260 261 262 262 263 263 267 269 269 270 271 270 269 269 268 267 266 266 265 265 264 264 264 264 264 264 265 265 267 269 272 277 284 285
255 255 255 254 254 254 254 254 254 253 253 253 253 252 252 252 252 252 251 251 251 251 251 250 250 249 249 250 250 250 250 249 250 250 250 250 250 250 250 250 250 249 250 251 252 252 253 254 256 257 259 261 261 262 262 263 264 267 269 270 270 271 270 270 269 268 268 267 266 265 265 264 264 263 264 264 264 264 265 266 267 268 270 276 284
Wind_Speed
13 12 11 11 13 13 12 11 12 10 10 9 8 8 7 7 7 6 6 7 6 6 7 7 7 7 8 8 9 8 8 8 7 8 8 9 9 9 10 10 11 11 11 12 12 12 13 14 14 14 14 15 13 13 14 16 16 15 15 15 17 16 16 17 20 23 22 15 14 17 18 16 19 20 20 20 18 17 19 19 22 21 21 19 19
13 12 11 11 14 13 13 11 11 10 10 9 9 8 7 7 7 7 7 6 6 7 7 6 6 7 8 9 9 9 9 9 8 8 8 9 10 8 9 10 11 12 11 12 12 11 12 14 14 14 14 15 15 16 15 16 16 15 16 16 17 17 15 17 16 20 26 19 15 15 18 16 20 19 19 22 22 19 20 19 17 18 18 19 18
11 11 11 13 13 13 12 11 11 11 11 9 9 9 8 8 7 7 7 6 6 6 6 7 7 7 8 9 9 9 9 9 8 8 8 9 10 10 10 11 12 12 12 13 13 12 13 14 15 14 12 14 16 17 16 18 16 18 18 17 19 18 17 18 17 22 23 23 17 18 16 17 17 19 19 18 20 20 20 19 18 16 16 18 17
12 12 12 13 14 13 12 12 13 12 11 9 10 9 8 8 7 7 7 6 6 6 6 6 7 7 8 9 9 9 9 8 8 8 9 10 10 11 11 11 12 12 13 13 13 13 14 14 14 14 14 17 18 17 16 17 16 17 18 17 18 19 19 17 19 19 19 24 18 16 16 18 17 18 17 16 19 20 18 18 18 18 18 17 16
12 12 13 15 14 13 13 12 12 12 11 9 10 10 9 8 7 7 7 6 6 6 6 6 7 7 8 8 8 8 8 8 8 9 9 10 10 11 11 12 12 12 13 13 13 14 14 15 15 14 17 18 18 17 17 18 18 17 18 18 17 18 16 16 17 18 19 22 20 15 16 17 16 16 16 18 18 19 18 19 19 18 19 18 15
13 13 13 14 13 14 13 12 13 12 11 10 11 10 9 8 7 7 7 7 6 6 6 6 6 7 8 8 8 8 8 8 9 9 10 10 10 11 11 12 12 12 13 13 13 13 14 16 18 18 19 19 18 19 18 20 19 18 21 19 18 17 18 18 17 18 19 21 19 20 16 20 18 19 17 18 19 18 17 17 18 18 17 17 15
13 13 13 13 13 14 13 12 12 12 11 10 9 9 9 8 8 7 6 6 6 6 6 6 6 7 8 8 8 8 8 8 9 9 10 10 11 11 11 12 12 11 12 14 16 18 19 18 19 19 20 21 20 20 20 22 19 23 20 21 18 19 19 18 18 18 18 18 18 17 17 15 16 19 15 14 17 16 20 20 16 15 14 15 16
13 13 13 12 12 13 12 12 11 10 10 9 9 9 8 8 7 6 6 6 6 6 6 6 7 7 7 7 8 7 8 8 8 9 10 10 10 10 10 12 14 15 16 16 16 17 19 19 20 21 21 20 22 19 22 20 20 21 18 19 19 20 19 18 17 16 18 16 16 16 15 16 14 16 16 16 17 17 16 16 20 21 16 14 15
13 13 12 12 12 12 11 10 10 10 10 9 9 8 8 7 7 6 6 5 4 5 5 6 7 8 8 8 8 7 7 7 7 7 7 9 9 11 12 14 14 16 16 16 17 18 18 19 20 19 22 28 30 30 27 26 18 17 21 18 18 18 19 18 16 14 14 16 16 14 16 17 14 16 18 16 17 17 15 12 15 16 15 15 13
13 12 12 11 11 11 11 9 10 10 9 9 8 8 7 7 6 6 5 5 5 5 5 6 7 8 7 7 7 6 7 6 9 14 13 10 12 12 13 14 15 14 16 17 17 15 17 16 18 27 30 31 32 33 34 34 35 29 23 17 17 17 16 16 15 16 14 16 15 15 14 17 15 15 17 19 19 19 18 17 16 17 16 14 12
11 12 11 11 11 11 11 10 10 10 9 8 6 8 7 6 5 5 4 5 5 5 6 8 8 6 6 6 7 7 6 6 13 15 16 19 14 13 13 14 14 15 16 15 16 18 16 19 16 21 24 25 25 30 31 34 33 35 37 37 31 22 16 16 16 15 15 14 14 16 16 19 17 18 18 17 18 18 17 17 16 17 15 12 13
12 12 12 12 12 12 10 11 10 10 8 7 7 6 5 5 5 5 4 5 5 5 7 7 6 5 5 5 7 7 7 10 15 16 17 18 17 13 13 13 13 14 14 16 17 16 19 17 18 15 15 21 20 22 25 31 33 34 35 35 33 36 36 27 18 13 15 13 14 15 15 17 15 15 15 15 18 18 17 16 17 17 14 12 10
12 13 12 12 12 12 11 11 9 9 8 8 7 6 6 5 5 5 5 5 4 5 7 6 5 5 5 6 7 7 8 12 15 17 18 18 19 18 13 13 14 14 17 17 16 19 17 19 17 18 18 27 23 21 22 22 27 33 34 34 34 36 34 38 37 28 20 18 18 16 17 13 20 14 17 15 17 19 18 17 17 15 12 11 10
11 12 10 11 11 11 10 10 9 9 8 8 7 7 6 6 5 5 4 4 5 6 6 6 5 5 5 5 6 7 9 11 16 17 18 19 19 18 13 15 15 16 16 16 18 18 19 16 18 21 20 19 18 19 20 21 20 19 19 19 20 24 29 34 35 37 32 23 21 19 19 13 19 13 18 16 17 17 17 17 17 17 17 15 11
8 8 9 10 9 9 10 9 9 9 8 8 7 7 6 6 6 5 4 5 6 6 5 5 4 4 5 5 5 7 8 14 16 17 17 19 20 19 13 13 14 14 15 18 18 18 17 17 21 22 19 19 21 20 22 21 20 18 19 19 19 20 19 19 19 18 20 18 19 23 24 19 21 19 18 17 21 20 18 19 18 17 18 16 14
12 10 10 10 9 10 9 10 9 9 9 8 8 7 7 6 6 5 4 4 5 5 4 4 4 5 5 5 6 7 9 14 16 16 18 18 21 13 12 14 14 15 18 17 18 17 16 19 20 19 22 22 24 34 31 24 22 21 21 21 20 20 19 19 28 27 24 22 20 18 21 20 22 22 19 18 17 18 17 18 18 17 17 15 17
10 11 10 10 10 10 10 10 9 9 9 9 8 7 7 7 5 4 5 5 5 5 4 4 4 4 5 6 6 7 8 12 15 17 18 20 17 12 13 13 14 17 17 18 17 17 18 18 17 20 21 21 28 34 34 32 23 22 21 22 20 20 19 18 25 34 36 38 39 39 37 36 33 31 32 36 26 19 15 17 19 14 15 17 14
10 10 10 10 10 10 9 9 10 10 9 9 8 7 6 5 5 5 5 5 5 5 4 3 4 4 5 6 6 7 8 11 15 16 17 19 18 13 13 13 15 15 16 16 14 17 20 28 27 21 24 24 31 34 33 28 21 20 20 21 22 20 17 15 15 19 32 36 36 37 36 37 35 35 36 36 35 28 19 19 17 12 16 14 14
12 11 11 11 10 9 9 9 10 10 9 8 8 8 7 6 5 5 5 4 4 4 3 3 3 3 4 6 10 10 8 9 14 15 17 18 16 12 12 13 13 14 15 17 19 17 16 20 27 27 26 27 34 32 33 28 21 20 20 21 22 22 20 16 19 17 15 15 16 18 22 27 25 22 22 34 34 30 23 22 15 17 18 15 12
11 9 10 10 9 9 9 9 9 9 9 9 7 6 6 5 5 5 5 4 4 3 2 2 3 4 5 6 6 6 7 7 9 16 16 18 19 14 12 11 14 16 17 17 15 15 18 17 19 27 31 32 32 34 33 35 27 23 20 20 20 25 19 18 19 17 17 17 17 16 17 14 15 16 17 17 20 23 24 22 19 16 17 16 14
13 10 10 10 10 10 8 9 10 8 8 8 7 6 5 5 6 5 5 4 3 2 2 2 3 5 4 5 5 6 6 8 9 15 16 17 20 19 11 12 13 15 15 16 14 16 18 18 18 25 31 32 33 35 37 36 33 24 21 19 20 24 27 19 21 28 20 18 16 15 14 14 14 14 15 16 16 15 16 18 17 17 17 17 16
11 10 11 10 10 9 9 9 8 8 8 7 7 6 5 5 5 5 5 4 4 3 2 2 2 3 4 5 5 5 6 10 10 13 16 18 19 22 14 13 16 15 15 14 17 18 19 18 18 24 33 34 35 36 36 34 35 23 21 30 36 38 28 20 17 15 15 14 15 14 14 12 13 13 14 14 15 16 15 13 15 17 17 16 17
11 10 11 11 9 9 9 10 8 7 7 7 7 7 6 5 5 5 4 4 4 3 3 2 2 3 4 4 3 4 5 7 12 12 16 19 21 21 22 19 24 17 14 15 18 19 18 19 20 31 35 36 34 34 33 35 29 21 32 33 35 39 31 17 15 14 13 12 10 11 12 12 13 13 13 12 12 13 14 13 14 15 15 16 17
11 12 11 10 11 9 9 9 8 7 7 7 6 6 6 5 5 5 5 4 3 2 1 1 2 3 3 4 4 5 6 6 10 14 14 20 20 21 22 24 24 15 16 16 16 18 18 18 23 37 34 32 33 32 32 30 23 32 33 34 35 31 14 11 11 11 12 10 10 10 11 12 12 13 12 10 9 9 11 13 14 15 15 14 15
13 12 11 10 10 10 9 8 8 8 7 7 7 6 6 6 5 5 5 4 3 2 1 1 2 2 3 4 5 6 6 7 8 11 18 19 20 21 23 24 23 25 16 13 16 16 23 33 33 31 31 31 32 30 25 26 29 30 31 31 28 14 13 8 9 9 11 11 10 10 12 12 12 12 11 10 11 12 12 11 11 11 11 12 13
13 13 11 10 10 10 11 9 8 9 9 7 7 6 7 7 6 6 5 4 4 3 1 1 1 2 3 4 5 6 7 7 8 10 12 13 16 20 23 22 23 24 22 17 23 27 27 27 30 29 26 24 20 17 17 18 28 29 28 25 14 13 14 13 10 10 10 11 10 10 11 10 10 11 11 11 11 11 11 12 10 9 9 10 11
13 11 12 11 10 10 11 9 8 8 7 6 5 5 6 5 5 5 5 5 4 3 2 1 1 2 3 4 5 6 6 7 8 9 8 10 11 12 14 14 19 19 14 12 15 14 18 19 19 24 22 27 26 25 22 23 19 17 15 14 13 13 13 12 14 13 12 10 11 11 9 10 10 11 11 10 11 10 10 11 11 11 9 9 10
14 12 12 10 9 9 8 11 10 7 7 7 7 6 5 5 5 6 6 6 5 4 2 1 1 2 3 4 5 6 6 7 8 8 9 11 11 11 11 11 12 11 12 13 14 14 14 17 18 14 15 15 15 12 13 13 15 15 14 13 13 14 16 20 18 13 12 11 10 9 9 9 10 10 10 11 11 10 9 10 11 11 10 9 10
12 13 11 9 9 9 8 9 8 8 7 6 5 6 6 6 6 5 5 4 5 4 2 1 1 2 3 4 4 5 6 7 7 13 13 16 15 14 12 13 13 11 16 24 16 12 10 12 12 13 13 15 16 14 14 14 14 15 16 14 13 13 13 12 13 13 13 14 14 12 12 10 11 10 10 10 10 9 8 10 9 10 10 10 12
11 11 10 10 10 9 8 8 7 8 8 7 6 3 4 8 6 6 6 9 7 3 3 3 1 1 2 3 3 4 5 7 15 18 18 19 20 21 20 20 19 17 21 25 17 10 11 12 12 13 14 14 15 16 16 15 15 17 16 19 15 13 13 13 12 13 14 14 13 14 13 11 11 11 11 12 11 9 10 11 11 10 11 11 11
10 11 11 9 11 9 9 8 7 7 7 7 7 7 6 7 9 9 8 7 5 5 4 2 1 2 1 1 3 8 10 13 16 16 18 18 20 20 20 19 19 21 23 17 11 10 11 12 13 13 14 14 14 15 16 14 13 13 15 16 15 15 15 13 12 14 14 13 14 13 13 13 12 11 12 12 12 11 9 9 9 10 11 10 11
13 11 10 10 11 10 9 9 9 8 7 7 7 8 8 8 7 8 8 5 7 7 5 4 4 3 3 3 3 4 8 12 15 16 17 18 19 20 20 20 19 20 20 19 9 10 10 12 12 13 14 14 14 14 15 15 15 14 14 13 14 15 15 15 15 15 14 13 14 14 14 14 14 14 14 12 12 11 9 9 9 9 9 10 12
13 12 10 11 11 11 9 9 8 9 8 8 6 6 7 8 9 8 6 5 5 6 5 5 5 5 5 6 7 9 9 12 15 15 17 18 19 20 20 19 19 21 18 11 8 10 11 11 12 13 13 13 14 14 13 13 14 16 15 13 13 15 15 17 17 14 12 13 13 14 14 14 14 14 13 12 11 10 9 9 8 8 9 10 11
13 13 11 13 12 9 9 9 9 8 7 7 6 5 4 6 7 8 7 3 3 4 2 2 6 7 7 7 9 10 11 12 13 14 16 17 18 19 18 11 15 18 16 10 10 9 10 10 11 11 12 13 12 13 14 15 14 13 13 13 14 14 15 15 13 13 12 13 13 13 14 14 13 13 13 12 10 10 10 10 9 9 10 11 11
9 18 28 18 8 10 8 9 7 7 6 6 6 5 6 6 7 7 6 7 5 3 0 2 5 6 5 5 9 10 10 12 13 14 14 15 16 16 13 9 11 11 10 8 8 8 10 10 11 12 12 13 14 14 13 15 16 16 16 15 15 16 16 14 13 14 13 13 13 13 13 14 14 13 12 12 12 10 10 10 10 10 11 11 11
10 10 10 13 9 8 7 7 7 7 7 6 5 6 6 6 6 6 6 5 5 3 2 0 1 6 6 6 10 11 11 12 13 12 12 14 15 14 9 9 8 9 9 9 9 10 9 10 10 11 11 12 13 12 12 12 12 13 12 12 14 15 13 11 13 14 15 13 13 14 15 13 12 13 12 12 13 13 11 10 9 8 9 10 10
10 10 11 10 8 8 8 8 8 7 7 6 6 6 5 4 4 5 4 4 3 2 1 1 2 3 3 2 9 12 12 12 13 10 12 14 16 10 6 7 7 8 9 11 10 11 12 11 11 11 12 12 12 13 14 14 14 13 14 13 15 16 13 12 15 15 15 14 12 13 13 13 13 13 12 13 13 12 12 10 9 10 10 12 12
9 11 11 10 9 9 9 7 9 11 7 6 5 5 5 5 5 5 4 4 3 2 1 0 0 0 1 3 9 6 8 11 12 10 12 14 11 8 7 6 6 7 9 10 11 11 11 12 12 12 12 11 13 14 13 13 14 15 15 14 15 14 21 17 16 14 15 13 13 13 13 13 12 12 12 12 12 12 12 11 9 9 10 12 12
9 19 23 23 15 11 8 9 8 8 7 6 6 5 5 6 5 5 4 4 3 2 1 0 0 0 1 2 5 6 7 5 6 5 6 4 5 5 6 6 7 7 8 8 10 10 11 12 12 12 11 12 13 13 13 13 13 13 14 13 14 15 15 13 14 14 13 13 12 11 11 12 12 12 12 12 13 12 12 12 11 11 10 10 10
11 12 15 21 11 12 7 7 7 7 6 7 7 6 6 5 6 6 6 5 4 3 2 2 1 0 0 2 4 2 2 2 2 3 3 4 5 5 4 6 6 7 8 9 9 10 11 11 12 12 13 14 12 13 13 14 13 13 15 14 12 14 15 14 14 15 15 15 13 13 13 13 13 13 13 12 12 12 12 12 12 11 10 9 9
9 11 14 13 12 11 8 7 6 7 7 7 7 6 6 5 5 5 5 5 4 4 3 2 2 1 2 5 6 3 1 1 2 2 2 3 3 4 5 5 6 7 7 8 9 10 10 11 12 12 13 12 12 12 13 13 13 12 13 13 16 17 15 15 16 16 17 16 15 15 12 12 13 13 14 13 14 13 12 11 12 11 9 8 8
11 10 12 13 13 9 9 6 7 10 7 8 8 8 6 5 5 5 5 4 4 3 3 2 1 1 4 3 3 2 1 1 1 2 1 1 3 3 4 5 5 5 7 8 9 10 11 12 12 12 13 13 13 13 13 13 12 12 12 13 17 17 17 17 16 17 17 16 17 16 15 13 15 14 15 15 12 11 11 11 12 10 8 7 7
16 15 16 13 13 10 10 8 7 8 6 6 5 5 5 6 5 5 4 4 4 3 3 2 1 1 1 2 3 2 0 1 2 1 1 1 2 3 4 5 6 6 6 7 8 8 9 10 11 11 12 14 13 13 13 13 13 12 12 13 16 17 18 17 17 16 16 16 15 14 15 14 14 13 12 12 11 11 11 12 13 10 7 6 6
16 16 14 12 9 12 9 7 7 5 5 6 6 6 5 5 5 5 5 4 4 3 3 2 1 0 0 1 1 1 0 1 1 0 1 1 2 3 4 5 6 7 7 8 8 8 9 10 10 11 12 13 13 14 15 13 11 11 11 14 16 18 18 18 18 17 17 16 15 15 15 15 14 13 13 12 11 12 13 13 13 9 5 4 5
20 12 11 10 10 8 8 6 6 7 7 7 6 6 4 5 5 5 5 4 4 3 3 2 1 1 1 1 1 1 1 1 1 1 1 1 2 3 4 5 6 7 8 8 8 9 9 10 11 12 13 13 14 15 15 15 15 12 11 14 15 17 19 19 17 17 16 17 16 14 13 13 13 14 13 13 12 12 13 13 13 10 5 4 5
16 14 17 15 12 7 7 7 6 7 7 7 9 8 6 5 4 5 4 4 4 4 3 2 1 1 1 1 1 2 1 1 1 1 2 1 2 3 3 4 6 7 7 8 8 9 9 10 10 11 12 13 14 14 14 15 14 13 12 12 14 15 17 17 16 16 17 17 16 14 14 14 14 14 17 15 13 12 13 14 14 10 4 3 4
12 12 16 11 9 7 6 6 6 7 6 7 7 8 6 5 4 4 3 4 4 3 3 2 2 1 1 1 1 1 1 1 1 1 2 2 3 3 3 4 6 7 7 8 8 9 9 10 11 11 12 12 14 15 15 14 14 13 13 13 13 17 18 19 17 17 17 17 15 14 14 14 14 14 16 15 13 13 14 13 13 8 4 2 3
8 8 8 8 8 9 8 7 8 9 5 5 6 6 5 5 5 4 3 3 3 3 3 2 2 1 2 1 1 1 0 1 1 2 2 3 2 3 4 4 5 6 8 9 8 9 9 9 11 11 12 13 14 14 15 16 16 13 14 14 14 18 25 28 19 19 18 17 16 16 15 15 14 14 14 15 14 14 13 12 12 10 3 1 2
9 9 10 9 8 8 7 8 5 6 6 6 7 7 5 5 4 4 4 3 4 3 3 2 2 2 1 1 1 1 1 1 1 2 2 3 3 3 3 4 5 6 7 8 9 9 10 10 11 11 12 12 13 14 14 14 12 13 16 15 20 31 31 34 25 22 26 18 16 16 16 15 16 16 14 15 14 14 12 12 10 11 7 1 2
8 7 7 8 7 7 5 6 6 6 5 6 6 6 6 5 4 3 4 4 3 3 2 2 2 2 1 1 1 0 0 1 1 2 3 3 3 3 3 4 5 6 6 8 9 9 9 10 11 11 12 12 13 13 14 14 12 14 16 20 27 30 31 33 32 34 27 17 17 16 16 15 16 15 13 13 14 14 14 12 12 10 10 5 2
11 7 7 7 7 7 7 6 6 6 6 6 6 6 6 5 4 5 4 4 3 3 3 2 2 2 1 1 1 0 0 1 1 2 3 3 3 3 4 5 6 6 7 8 8 9 9 10 10 11 12 12 13 14 14 13 11 16 23 31 31 31 33 34 26 30 36 26 17 17 17 17 17 17 15 15 15 13 15 15 12 11 9 9 5
Wind_Direction
163 164 152 150 151 157 159 159 160 160 161 168 174 182 187 191 198 202 204 212 210 218 223 230 235 239 247 251 253 255 258 260 258 258 259 262 263 265 268 266 266 266 266 267 264 266 266 266 267 268 269 268 269 274 272 270 265 264 262 259 259 259 256 257 260 267 272 265 274 276 274 275 277 273 275 277 276 273 270 269 271 277 277 275 272
165 158 153 153 158 156 156 156 158 159 163 167 176 179 184 189 192 196 208 210 211 219 222 226 234 240 244 248 250 253 255 256 257 256 258 263 265 263 264 265 265 265 264 264 264 263 266 266 267 268 268 273 275 273 271 272 267 266 262 260 259 260 256 257 259 265 272 277 271 270 278 274 274 274 274 277 277 275 269 267 270 266 265 265 263
155 148 151 155 158 154 154 158 158 162 166 170 178 180 182 188 188 197 204 206 210 213 220 225 232 237 244 247 251 253 255 256 256 255 259 262 265 264 263 264 265 266 265 264 265 267 267 266 268 270 269 269 274 280 273 270 268 264 262 261 261 260 257 256 261 263 268 273 272 277 274 275 269 276 272 270 275 275 272 268 263 261 256 254 253
153 152 153 155 155 154 158 157 159 164 167 173 175 181 181 184 188 195 201 206 209 215 216 227 234 240 244 248 248 252 254 255 259 258 260 262 264 266 265 264 264 266 266 267 267 266 267 270 268 270 277 282 284 279 269 268 264 264 262 261 261 260 257 256 254 259 266 272 269 268 274 276 273 271 273 268 268 270 271 274 270 266 265 266 265
152 155 155 154 156 157 158 159 162 167 169 171 176 178 181 178 185 192 195 205 209 215 224 225 236 240 244 247 251 255 258 258 262 262 262 263 264 266 267 267 266 267 267 268 267 265 265 265 272 279 285 281 275 270 267 262 262 262 260 260 261 260 259 255 255 254 261 265 271 265 265 267 269 272 273 281 279 274 271 266 266 267 268 265 263
157 157 158 156 159 160 160 161 165 166 167 168 173 175 176 180 182 185 195 205 210 218 224 234 233 242 247 252 255 259 263 262 263 264 265 265 266 266 267 267 268 269 269 270 267 265 269 277 283 280 278 269 267 267 263 260 259 257 259 260 259 259 259 257 255 257 258 264 269 275 268 272 276 270 264 261 268 276 277 268 263 262 264 267 261
159 159 158 157 158 162 161 162 162 164 165 166 166 172 175 178 180 186 192 199 209 219 227 232 238 242 249 251 256 260 264 264 265 266 266 269 270 271 275 275 275 274 274 276 280 279 278 274 273 271 267 264 259 263 262 260 255 256 252 255 255 258 259 256 256 256 257 262 267 266 271 268 270 276 272 262 260 258 267 276 276 266 260 258 262
158 158 157 158 160 161 159 156 158 156 158 160 163 166 168 173 177 183 188 199 211 222 228 234 242 244 250 252 256 262 264 263 266 267 269 272 276 276 278 280 284 282 280 275 272 271 269 265 266 265 261 257 259 252 258 256 254 254 250 252 253 256 253 254 254 253 255 255 259 265 265 271 274 278 281 277 272 263 254 258 269 272 265 256 250
156 157 158 159 160 155 148 149 148 150 152 157 161 166 167 172 173 179 185 199 214 222 233 240 246 249 249 254 259 262 263 265 263 263 268 277 279 284 286 285 284 284 281 279 278 275 271 269 266 264 260 258 257 257 257 258 254 258 256 251 252 257 258 255 252 248 253 256 256 257 264 261 263 278 282 280 272 270 275 262 264 271 273 267 259
155 154 159 156 147 144 142 137 145 144 151 158 164 163 167 168 170 179 191 204 216 224 233 244 244 246 253 257 263 266 266 263 263 268 272 278 286 288 289 287 286 282 282 283 279 275 277 277 278 275 278 278 276 274 269 267 264 259 252 246 248 247 250 250 249 248 242 249 254 252 250 259 260 262 268 275 283 281 272 265 260 260 258 256 257
153 154 153 146 143 142 140 144 145 149 155 157 159 159 163 163 167 179 191 206 218 227 235 240 241 244 249 261 270 268 267 267 272 277 282 287 290 292 290 289 286 286 284 283 284 287 288 286 282 284 283 281 281 280 277 277 275 274 268 258 250 248 247 246 243 242 245 242 241 246 253 253 253 267 266 273 271 280 287 293 283 268 260 256 259
149 152 150 145 145 142 142 145 146 150 150 157 155 153 155 156 168 181 196 206 218 225 236 239 242 251 256 265 269 271 272 273 281 286 290 293 295 293 292 291 290 287 287 289 290 292 291 289 288 284 284 284 284 283 281 278 278 277 276 277 276 264 255 254 251 242 241 247 245 235 239 244 252 244 254 263 269 269 266 266 271 275 263 258 259
151 151 149 147 147 148 146 146 146 147 152 152 150 148 153 162 177 188 201 207 218 230 235 239 242 251 259 262 268 274 276 281 286 291 296 298 300 299 293 291 290 289 293 291 292 291 291 290 290 292 289 289 285 282 278 279 278 277 277 277 275 274 271 264 261 260 257 255 255 257 248 258 262 255 257 254 267 273 276 275 278 281 275 271 270
151 151 141 143 142 141 139 139 144 147 146 145 146 149 161 175 182 190 192 204 224 235 236 241 245 249 257 269 276 277 278 281 289 296 302 304 304 304 298 297 295 292 290 291 291 290 289 287 292 290 290 286 283 284 281 278 276 276 272 270 270 269 268 267 268 268 266 263 262 262 260 254 257 259 259 257 258 261 269 276 280 281 282 282 287
122 129 132 138 137 137 137 141 141 144 142 145 148 156 164 172 181 190 194 209 220 227 231 231 242 246 262 268 269 274 272 280 292 302 306 308 308 310 304 299 295 291 290 289 288 286 285 287 289 288 285 289 287 283 284 281 277 272 270 267 264 265 264 264 262 259 259 252 256 258 261 258 261 257 257 256 255 256 257 266 273 276 283 290 286
142 142 144 145 145 144 139 142 141 141 143 147 151 160 168 177 179 187 197 216 227 233 237 240 249 254 257 264 270 277 279 288 300 307 311 312 313 311 305 301 298 295 293 291 292 288 286 287 287 287 290 287 290 290 289 287 283 280 274 269 265 262 259 258 263 261 259 256 253 252 257 254 251 254 254 255 257 258 260 262 263 263 266 267 268
147 152 150 142 142 143 144 142 141 141 147 149 157 164 167 175 179 181 197 216 221 223 227 242 245 255 261 260 268 276 282 291 303 311 312 314 316 310 307 303 299 296 292 294 291 292 292 289 292 295 293 294 295 294 293 291 287 283 279 276 272 268 264 261 259 261 261 263 257 254 253 251 249 247 253 255 257 254 253 256 254 255 262 264 267
154 149 147 144 140 141 143 140 142 143 148 154 157 160 161 167 174 187 197 212 219 216 226 241 248 248 257 263 269 278 282 291 303 310 312 312 314 312 309 305 300 296 295 292 296 297 296 300 300 297 297 295 294 294 294 294 290 287 286 282 280 275 268 266 259 261 257 261 257 262 263 261 261 258 259 261 261 257 247 247 249 254 257 256 262
159 156 149 142 139 134 134 138 141 146 147 152 151 156 163 167 169 179 209 217 222 219 221 241 251 266 260 264 271 278 280 288 301 307 310 312 314 311 308 306 297 297 299 302 303 298 301 300 299 299 298 295 297 298 298 297 291 286 283 280 278 275 273 271 266 265 259 256 249 253 254 257 258 254 255 259 261 255 247 249 249 243 252 257 261
131 120 124 129 128 132 136 136 136 138 143 139 145 150 151 156 172 192 205 210 213 218 220 240 267 273 273 265 267 277 287 292 296 305 311 313 314 312 308 302 303 305 307 306 304 305 305 302 302 302 301 301 300 300 298 296 294 287 280 275 271 272 269 266 264 263 262 259 255 246 246 238 243 244 248 251 249 243 243 242 239 237 244 254 254
130 132 127 126 127 130 130 134 133 131 133 137 140 146 156 164 177 189 201 214 200 214 221 251 263 265 272 274 275 282 281 293 299 307 310 312 314 315 306 305 306 306 306 306 307 308 307 306 305 303 304 303 301 302 301 300 298 294 288 279 274 273 274 263 261 262 264 262 256 251 248 244 244 246 252 254 252 250 242 233 230 231 232 239 243
130 128 134 128 125 123 125 123 117 123 127 135 139 151 161 164 174 184 204 188 188 203 224 242 259 278 281 282 279 286 301 305 306 308 311 312 313 313 310 307 310 311 310 308 308 308 308 307 304 303 304 305 306 305 306 305 304 302 294 291 289 285 278 270 262 255 253 255 253 250 246 240 241 247 252 249 245 248 249 240 229 228 230 230 233
125 123 119 119 115 115 117 123 125 127 135 142 146 151 154 159 183 194 192 185 187 195 217 227 262 279 282 289 295 304 309 309 309 310 311 314 314 314 315 315 316 316 312 308 309 308 306 303 301 304 307 309 310 310 309 311 311 302 299 302 303 297 282 260 255 252 249 244 236 234 234 237 240 247 250 248 242 242 245 240 236 232 228 231 230
117 115 112 115 117 115 118 123 124 130 136 143 152 154 161 167 185 190 191 189 171 178 196 216 274 275 295 308 309 311 314 312 312 311 312 314 315 318 321 320 320 319 315 310 308 306 305 304 309 311 313 312 311 312 313 312 308 308 311 312 316 313 289 259 240 246 249 243 227 226 232 232 241 247 248 255 262 257 251 243 238 234 231 232 233
122 122 120 121 122 126 128 131 135 137 145 153 154 159 165 175 184 180 182 177 159 162 190 232 269 294 305 308 313 316 313 314 313 311 312 311 319 323 324 324 325 323 318 312 308 305 309 313 314 315 314 313 312 313 312 310 311 313 314 317 322 324 309 268 254 244 248 249 231 232 234 235 237 243 244 247 251 259 263 260 247 239 230 232 236
128 126 124 127 129 131 132 136 142 148 156 160 163 163 166 183 182 173 173 163 160 163 184 218 270 303 306 307 309 314 316 312 309 304 296 308 324 326 327 329 326 323 321 313 312 317 317 315 315 315 316 316 316 315 314 315 315 317 318 322 323 327 331 313 270 255 249 252 249 240 241 238 237 240 242 240 242 243 249 257 256 241 231 237 242
129 132 132 131 133 141 142 147 148 152 160 158 162 163 170 184 173 168 165 157 158 160 179 207 296 300 300 308 311 313 314 313 311 300 303 322 327 327 330 329 327 326 322 314 322 325 317 317 320 322 322 321 320 316 316 319 321 321 323 323 322 325 323 324 317 296 264 251 251 244 245 244 245 249 245 242 243 243 241 248 252 253 243 241 243
142 139 137 134 139 147 145 143 145 149 163 161 159 167 180 185 176 173 167 162 154 158 152 183 259 294 300 309 308 316 314 314 309 310 325 332 331 332 330 329 330 330 324 325 334 328 320 322 322 323 326 329 325 321 321 323 322 323 320 320 322 321 320 322 324 326 317 291 263 262 255 253 249 246 243 239 241 241 240 239 240 244 239 243 247
128 130 134 132 137 145 142 152 156 152 155 159 165 169 173 178 173 152 146 143 153 145 154 200 240 267 296 295 309 310 314 311 305 324 332 335 338 338 338 339 336 333 334 340 337 326 324 328 329 331 334 333 334 330 328 329 331 329 325 325 325 325 325 330 330 325 321 323 313 286 260 252 255 254 257 257 253 249 245 255 250 250 248 238 245
131 138 139 141 145 144 144 151 152 146 147 150 151 156 197 187 167 160 161 176 175 186 179 169 210 261 273 291 301 298 300 302 320 333 338 341 342 343 343 342 339 339 342 346 341 331 335 338 333 334 334 334 335 335 332 330 329 335 335 331 327 322 323 323 323 319 320 315 308 306 295 269 254 253 250 254 251 246 237 237 243 238 246 242 247
141 140 150 154 153 145 144 146 150 147 148 151 158 158 161 180 180 156 149 148 150 145 121 114 11 333 298 250 308 318 312 322 333 340 343 346 346 347 345 345 344 345 350 353 342 342 337 335 334 333 333 329 328 331 332 328 324 319 326 332 329 324 322 320 319 320 318 312 308 303 302 301 278 254 251 247 248 241 239 231 234 237 240 243 245
150 153 147 144 146 145 142 145 145 145 148 159 164 162 161 152 164 174 157 140 144 135 121 79 42 44 21 12 359 324 330 335 343 348 350 351 352 351 348 349 349 352 354 354 341 340 340 338 332 332 328 328 329 323 324 329 328 327 319 318 326 329 327 323 321 318 314 312 311 310 308 305 300 282 254 243 241 239 234 235 226 234 237 239 241
135 143 145 143 145 143 141 145 146 146 152 159 164 169 160 156 150 156 162 141 142 138 90 64 40 43 28 20 4 354 349 348 352 355 358 358 357 356 353 349 353 356 357 356 352 338 337 331 329 326 327 323 318 325 323 312 315 323 328 321 314 322 322 319 316 313 311 311 311 306 303 300 298 300 284 247 236 238 235 235 235 236 245 250 250
138 143 144 149 142 147 147 147 144 145 151 153 156 153 149 142 141 142 148 144 154 171 180 32 32 30 21 18 3 358 353 353 358 2 3 2 359 358 357 344 349 357 3 354 344 336 328 324 321 320 321 320 315 313 323 328 320 307 310 325 326 317 309 313 316 314 314 314 311 305 302 298 302 305 304 295 257 242 239 237 235 235 239 243 250
124 155 155 151 131 143 140 140 134 131 136 141 144 142 135 134 133 143 148 150 153 158 230 323 350 16 17 5 353 352 349 354 3 6 6 4 4 357 351 356 358 351 352 351 339 329 324 320 319 320 319 316 317 316 315 319 323 323 322 320 321 325 323 319 317 320 317 312 308 304 303 303 303 301 302 302 297 267 245 239 235 232 236 242 245
140 137 142 146 126 123 122 124 129 136 144 144 139 132 133 140 141 135 133 131 141 149 181 194 322 316 337 359 353 347 344 354 360 4 7 8 10 9 12 3 349 348 342 338 334 328 316 315 319 314 313 315 314 317 311 303 307 310 304 312 320 318 313 317 325 325 322 314 307 306 305 302 300 300 300 297 293 288 266 246 238 232 235 240 244
143 141 141 139 129 125 127 131 142 139 131 124 130 126 118 119 112 117 112 113 111 114 100 340 341 334 0 6 352 339 341 350 352 357 7 12 18 23 15 359 348 335 336 337 332 328 326 322 319 314 314 314 314 312 317 318 309 305 310 317 320 324 319 321 328 328 323 318 309 305 303 300 300 299 298 296 294 293 286 264 248 244 243 246 246
138 132 128 130 125 128 127 121 129 126 122 125 120 122 126 126 123 116 115 110 121 117 116 144 7 248 341 318 345 338 331 341 344 358 5 9 10 8 1 349 340 334 332 329 328 323 322 318 319 318 314 309 309 311 307 309 317 320 315 312 322 324 327 326 323 322 317 315 317 315 311 302 299 298 296 290 289 291 291 282 258 245 241 241 239
137 148 147 146 142 138 131 129 130 133 130 127 130 134 136 132 126 121 116 115 123 132 155 145 6 337 353 323 326 324 346 351 359 348 340 341 354 1 351 343 337 333 325 323 320 323 322 320 318 316 310 310 307 308 311 308 304 310 309 299 310 326 329 332 330 328 322 315 306 302 302 303 299 296 293 290 287 284 284 287 269 247 240 240 230
140 142 143 139 129 135 118 120 126 126 136 133 138 140 135 136 136 133 130 135 148 157 161 157 174 186 278 305 274 311 356 320 306 308 315 338 350 350 346 338 334 327 324 322 321 320 316 315 318 320 320 316 311 311 308 309 307 307 312 317 315 316 324 333 335 333 329 326 318 315 309 306 302 299 293 285 280 281 284 288 285 251 235 237 229
128 132 140 140 131 127 114 126 133 136 133 137 137 139 140 136 129 129 131 138 142 147 151 158 172 182 222 250 298 21 130 270 276 296 315 338 335 337 337 331 322 323 321 318 317 317 318 316 317 317 316 307 308 309 308 307 307 308 312 315 328 331 329 335 337 335 332 328 325 320 312 305 303 301 296 291 287 284 283 284 284 262 234 230 221
128 130 135 138 137 127 135 128 134 139 133 140 144 141 134 131 130 126 132 134 142 146 147 157 169 176 268 293 351 40 116 233 268 282 311 328 324 325 321 314 311 308 313 311 313 312 316 318 317 316 312 311 309 308 312 311 309 308 311 322 336 336 337 338 337 335 332 328 324 319 315 309 307 300 293 291 290 293 295 295 290 272 234 222 210
138 120 121 126 141 142 139 133 131 135 131 133 121 119 119 123 120 124 128 131 140 146 149 151 159 149 282 307 356 42 201 243 251 283 315 324 316 314 309 311 312 310 306 303 302 306 311 315 313 314 317 316 315 313 309 306 308 308 310 324 336 339 339 338 336 334 330 324 321 314 312 311 308 301 298 301 302 302 298 295 294 272 240 213 197
109 121 102 114 103 85 92 113 125 124 118 109 106 116 121 118 120 120 127 128 143 144 147 148 149 151 237 302 334 281 242 246 254 293 290 310 311 315 308 311 310 312 311 310 313 313 315 314 317 315 314 315 317 319 320 307 298 303 312 329 339 340 341 341 339 337 334 329 321 320 316 314 313 309 307 310 315 311 307 301 297 281 240 211 181
118 130 130 130 131 127 128 119 113 113 113 118 120 119 118 123 124 128 129 134 142 142 139 142 144 179 223 230 250 248 255 255 270 250 293 300 306 303 303 307 310 314 315 314 316 320 319 319 318 318 318 319 321 322 321 323 319 317 316 334 341 344 346 343 339 335 331 329 325 315 312 315 316 318 318 319 317 310 305 298 296 288 255 217 182
118 124 117 112 121 120 128 123 121 126 133 134 136 135 129 119 122 129 135 135 141 143 142 146 155 178 193 223 238 228 256 256 269 281 285 301 301 301 300 304 308 310 310 312 315 317 320 321 322 320 320 319 320 322 324 325 326 327 328 335 342 345 344 341 338 337 337 334 330 324 319 320 324 325 324 321 313 310 301 295 289 279 246 208 186
127 120 121 120 127 118 115 123 131 138 128 132 132 133 125 128 123 123 126 134 137 133 140 141 157 169 198 218 223 241 256 269 288 291 288 280 282 287 298 307 310 311 315 314 315 318 322 325 325 319 317 321 323 325 330 331 330 327 334 339 342 348 349 346 344 344 342 337 332 330 330 326 324 325 326 322 318 313 309 297 296 282 273 219 169
113 120 122 124 123 126 131 132 136 139 120 123 119 121 117 124 125 131 133 133 136 139 138 139 161 184 203 215 220 232 252 258 283 273 282 282 289 293 304 308 314 317 316 317 319 323 324 325 324 322 323 325 328 329 331 332 328 323 338 342 346 352 351 350 347 349 347 342 339 338 337 337 336 329 323 324 321 318 312 309 315 309 272 229 181
124 129 132 135 129 130 134 135 134 136 136 122 120 120 121 123 128 128 137 139 143 144 143 152 176 188 206 207 216 219 250 264 270 278 283 289 292 301 308 312 313 317 318 319 319 323 325 325 326 324 323 324 327 329 329 319 310 324 342 343 348 354 355 355 353 355 350 346 345 345 344 344 342 336 328 326 321 318 311 310 313 322 309 206 153
120 118 110 113 116 122 118 125 127 123 122 126 125 122 125 123 128 132 137 140 136 139 149 164 184 191 193 200 190 203 240 269 287 287 290 290 291 304 304 317 324 326 324 319 319 320 323 323 326 325 324 324 329 327 327 321 311 331 340 341 345 357 360 358 356 357 355 351 348 350 348 346 344 341 339 335 333 320 325 326 329 327 326 308 176
101 117 123 126 119 120 123 126 124 126 129 131 127 127 129 133 137 140 141 145 146 149 154 172 178 184 203 188 171 195 215 260 270 275 274 289 298 308 316 327 333 330 323 320 321 320 322 324 326 325 324 327 330 329 321 319 313 333 342 344 350 0 3 3 360 359 357 355 351 354 355 352 351 351 347 346 340 337 334 333 337 342 336 329 319